This is the latest recevied weather packets stored in our database for station/object IZ4UFQ-10. If no packets are shown the sender has not sent any weather packets the latest 10 day(s).
| Time | Temp. | Humidity | Pressure | Rain* | Wind** | Luminosity | Snow |
|---|---|---|---|---|---|---|---|
| 1777707421 | 16.67° C | 44% | 1026.1 hPa | 0 mm | - | 577 W/m² | - |
| 1777707120 | 16.67° C | 45% | 1026.2 hPa | 0 mm | - | 563 W/m² | - |
| 1777706820 | 16.67° C | 44% | 1026.2 hPa | 0 mm | - | 548 W/m² | - |
| 1777706520 | 16.67° C | 45% | 1026.2 hPa | 0 mm | - | 538 W/m² | - |
| 1777706219 | 16.67° C | 44% | 1026.2 hPa | 0 mm | - | 524 W/m² | - |
| 1777705919 | 16.11° C | 44% | 1026.2 hPa | 0 mm | - | 510 W/m² | - |
| 1777705619 | 16.67° C | 44% | 1026.2 hPa | 0 mm | - | 496 W/m² | - |
| 1777705318 | 16.11° C | 44% | 1026.3 hPa | 0 mm | - | 482 W/m² | - |
| 1777705018 | 16.11° C | 44% | 1026.2 hPa | 0 mm | - | 468 W/m² | - |
| 1777704718 | 16.11° C | 44% | 1026.3 hPa | 0 mm | - | 452 W/m² | - |
| 1777704418 | 16.11° C | 44% | 1026.3 hPa | 0 mm | - | 441 W/m² | - |
| 1777704117 | 16.11° C | 44% | 1026.3 hPa | 0 mm | - | 425 W/m² | - |
| 1777703817 | 16.11° C | 43% | 1026.3 hPa | 0 mm | - | 410 W/m² | - |
| 1777703517 | 15.56° C | 45% | 1026.3 hPa | 0 mm | - | 394 W/m² | - |
| 1777703216 | 15° C | 46% | 1026.3 hPa | 0 mm | - | 378 W/m² | - |
| 1777702916 | 14.44° C | 46% | 1026.3 hPa | 0 mm | - | 362 W/m² | - |
| 1777702616 | 14.44° C | 46% | 1026.3 hPa | 0 mm | - | 346 W/m² | - |
| 1777702316 | 14.44° C | 45% | 1026.3 hPa | 0 mm | - | 334 W/m² | - |
| 1777702015 | 14.44° C | 44% | 1026.3 hPa | 0 mm | - | 318 W/m² | - |
| 1777701715 | 15° C | 43% | 1026.4 hPa | 0 mm | - | 304 W/m² | - |
| 1777701415 | 15° C | 44% | 1026.4 hPa | 0 mm | - | 287 W/m² | - |
| 1777701114 | 15° C | 44% | 1026.3 hPa | 0 mm | - | 272 W/m² | - |
| 1777700814 | 14.44° C | 44% | 1026.3 hPa | 0 mm | - | 255 W/m² | - |
| 1777700514 | 14.44° C | 45% | 1026.2 hPa | 0 mm | - | 239 W/m² | - |
| 1777700214 | 14.44° C | 45% | 1026.2 hPa | 0 mm | - | 225 W/m² | - |
* Rain latest hour (hover to see other rain measurements)
** Current wind speed in m/s (hover to see current wind gust speed)